Time,TemperatureF,DewpointF,PressureIn,WindDirection,WindDirectionDegrees,WindSpeedMPH,WindSpeedGustMPH,Humidity,HourlyPrecipIn,Conditions,Clouds,dailyrainin,SoftwareType,DateUTC
2013-04-29 00:02:00,55.5,31.9,30.11,NW,326,0.0,0.0,40,0.00,,---,0.00,VWS V14.00,2013-04-29 07:02:00,
2013-04-29 00:12:00,54.7,31.8,30.11,NW,326,4.0,6.0,42,0.00,,---,0.00,VWS V14.00,2013-04-29 07:12:00,
2013-04-29 00:17:00,54.4,31.5,30.11,NW,326,0.0,6.0,42,0.00,,---,0.00,VWS V14.00,2013-04-29 07:17:00,
2013-04-29 00:22:00,54.1,31.2,30.11,NW,326,0.0,5.0,42,0.00,,---,0.00,VWS V14.00,2013-04-29 07:22:00,
2013-04-29 00:27:00,53.9,31.6,30.11,NW,326,0.0,0.0,42,0.00,,---,0.00,VWS V14.00,2013-04-29 07:27:00,
2013-04-29 00:32:00,54.0,31.7,30.11,NW,326,0.0,0.0,42,0.00,,---,0.00,VWS V14.00,2013-04-29 07:32:00,
2013-04-29 00:37:00,54.3,32.0,30.11,NW,326,0.0,0.0,42,0.00,,---,0.00,VWS V14.00,2013-04-29 07:37:00,
2013-04-29 00:47:00,55.9,33.5,30.11,NW,326,0.0,0.0,42,0.00,,---,0.00,VWS V14.00,2013-04-29 07:47:00,
2013-04-29 00:52:00,56.5,33.4,30.11,NW,326,0.0,0.0,42,0.00,,---,0.00,VWS V14.00,2013-04-29 07:52:00,
2013-04-29 01:02:00,57.1,32.7,30.11,NW,326,0.0,0.0,40,0.00,,---,0.00,VWS V14.00,2013-04-29 08:02:00,
2013-04-29 01:08:00,57.0,33.2,30.11,NW,326,0.0,0.0,40,0.00,,---,0.00,VWS V14.00,2013-04-29 08:08:00,
2013-04-29 01:17:00,56.7,32.4,30.11,NW,326,0.0,0.0,40,0.00,,---,0.00,VWS V14.00,2013-04-29 08:17:00,
2013-04-29 01:22:00,56.3,32.6,30.11,NW,326,0.0,0.0,40,0.00,,---,0.00,VWS V14.00,2013-04-29 08:22:00,
2013-04-29 01:27:00,56.3,33.2,30.11,NW,326,0.0,0.0,42,0.00,,---,0.00,VWS V14.00,2013-04-29 08:27:00,
2013-04-29 01:32:00,56.2,32.5,30.11,NW,326,0.0,0.0,40,0.00,,---,0.00,VWS V14.00,2013-04-29 08:32:00,
2013-04-29 01:37:00,55.0,32.0,30.10,NW,326,0.0,0.0,42,0.00,,---,0.00,VWS V14.00,2013-04-29 08:37:00,
2013-04-29 01:42:00,55.7,33.3,30.10,NW,326,0.0,0.0,42,0.00,,---,0.00,VWS V14.00,2013-04-29 08:42:00,
2013-04-29 01:47:00,56.0,32.3,30.10,NW,326,0.0,0.0,40,0.00,,---,0.00,VWS V14.00,2013-04-29 08:47:00,
2013-04-29 01:52:00,55.1,32.1,30.10,NW,326,0.0,0.0,42,0.00,,---,0.00,VWS V14.00,2013-04-29 08:52:00,
2013-04-29 01:57:00,55.0,32.0,30.10,NW,326,0.0,0.0,42,0.00,,---,0.00,VWS V14.00,2013-04-29 08:57:00,
2013-04-29 02:02:00,55.1,32.7,30.10,NW,326,0.0,0.0,42,0.00,,---,0.00,VWS V14.00,2013-04-29 09:02:00,
2013-04-29 02:07:00,55.5,33.1,30.10,NW,326,0.0,0.0,42,0.00,,---,0.00,VWS V14.00,2013-04-29 09:07:00,
2013-04-29 02:12:00,55.4,32.4,30.09,NW,326,0.0,0.0,42,0.00,,---,0.00,VWS V14.00,2013-04-29 09:12:00,
2013-04-29 02:17:00,54.1,31.2,30.09,NW,326,0.0,0.0,42,0.00,,---,0.00,VWS V14.00,2013-04-29 09:17:00,
2013-04-29 02:22:00,51.9,31.0,30.09,NW,326,0.0,0.0,44,0.00,,---,0.00,VWS V14.00,2013-04-29 09:22:00,
2013-04-29 02:28:00,51.4,31.1,30.09,NW,326,0.0,0.0,46,0.00,,---,0.00,VWS V14.00,2013-04-29 09:28:00,
2013-04-29 02:37:00,50.6,30.9,30.09,NW,326,0.0,6.0,46,0.00,,---,0.00,VWS V14.00,2013-04-29 09:37:00,
2013-04-29 02:42:00,50.2,31.0,30.09,NW,326,0.0,0.0,48,0.00,,---,0.00,VWS V14.00,2013-04-29 09:42:00,
2013-04-29 02:47:00,49.7,30.6,30.09,NW,326,0.0,5.0,48,0.00,,---,0.00,VWS V14.00,2013-04-29 09:47:00,
2013-04-29 02:52:00,49.8,30.7,30.09,NW,326,0.0,1.0,48,0.00,,---,0.00,VWS V14.00,2013-04-29 09:52:00,
2013-04-29 02:57:00,50.3,31.1,30.09,NW,326,0.0,5.0,48,0.00,,---,0.00,VWS V14.00,2013-04-29 09:57:00,
2013-04-29 03:02:00,50.4,30.7,30.09,NW,326,0.0,5.0,46,0.00,,---,0.00,VWS V14.00,2013-04-29 10:02:00,
2013-04-29 03:07:00,49.9,30.8,30.09,NW,326,0.0,0.0,48,0.00,,---,0.00,VWS V14.00,2013-04-29 10:07:00,
2013-04-29 03:12:00,50.0,31.4,30.09,NW,326,0.0,0.0,48,0.00,,---,0.00,VWS V14.00,2013-04-29 10:12:00,
2013-04-29 03:17:00,51.1,31.9,30.09,NW,326,0.0,0.0,48,0.00,,---,0.00,VWS V14.00,2013-04-29 10:17:00,
2013-04-29 03:22:00,52.2,31.8,30.09,NW,326,0.0,0.0,46,0.00,,---,0.00,VWS V14.00,2013-04-29 10:22:00,
2013-04-29 03:27:00,51.9,31.5,30.09,NW,326,0.0,0.0,46,0.00,,---,0.00,VWS V14.00,2013-04-29 10:27:00,
2013-04-29 03:32:00,51.1,30.8,30.09,NW,326,0.0,0.0,46,0.00,,---,0.00,VWS V14.00,2013-04-29 10:32:00,
2013-04-29 03:37:00,50.5,30.8,30.09,NW,326,0.0,0.0,46,0.00,,---,0.00,VWS V14.00,2013-04-29 10:37:00,
2013-04-29 03:42:00,50.6,31.4,30.09,NW,326,0.0,0.0,48,0.00,,---,0.00,VWS V14.00,2013-04-29 10:42:00,
2013-04-29 03:47:00,50.9,31.1,30.09,NW,326,0.0,0.0,46,0.00,,---,0.00,VWS V14.00,2013-04-29 10:47:00,
2013-04-29 03:52:00,50.6,30.9,30.09,NW,326,0.0,0.0,46,0.00,,---,0.00,VWS V14.00,2013-04-29 10:52:00,
2013-04-29 03:57:00,50.5,31.3,30.09,NW,326,0.0,0.0,48,0.00,,---,0.00,VWS V14.00,2013-04-29 10:57:00,
2013-04-29 04:02:00,50.9,31.1,30.09,NW,326,0.0,0.0,46,0.00,,---,0.00,VWS V14.00,2013-04-29 11:02:00,
2013-04-29 04:08:00,51.2,31.4,30.09,NW,326,0.0,0.0,46,0.00,,---,0.00,VWS V14.00,2013-04-29 11:08:00,
2013-04-29 04:17:00,51.5,32.2,30.09,NW,326,0.0,0.0,48,0.00,,---,0.00,VWS V14.00,2013-04-29 11:17:00,
2013-04-29 04:22:00,52.0,32.2,30.09,NW,326,0.0,0.0,46,0.00,,---,0.00,VWS V14.00,2013-04-29 11:22:00,
2013-04-29 04:27:00,52.3,31.9,30.09,NW,326,0.0,0.0,46,0.00,,---,0.00,VWS V14.00,2013-04-29 11:27:00,
2013-04-29 04:32:00,52.0,31.6,30.09,NW,326,0.0,0.0,46,0.00,,---,0.00,VWS V14.00,2013-04-29 11:32:00,
2013-04-29 04:38:00,51.5,31.1,30.09,NW,326,0.0,0.0,46,0.00,,---,0.00,VWS V14.00,2013-04-29 11:38:00,
2013-04-29 04:47:00,51.7,31.9,30.09,NW,326,0.0,0.0,46,0.00,,---,0.00,VWS V14.00,2013-04-29 11:47:00,
2013-04-29 04:52:00,52.3,31.9,30.09,NW,326,0.0,0.0,46,0.00,,---,0.00,VWS V14.00,2013-04-29 11:52:00,
2013-04-29 04:57:00,52.4,31.4,30.09,NW,326,0.0,0.0,44,0.00,,---,0.00,VWS V14.00,2013-04-29 11:57:00,
2013-04-29 05:02:00,52.3,31.3,30.09,NW,326,0.0,0.0,44,0.00,,---,0.00,VWS V14.00,2013-04-29 12:02:00,
2013-04-29 05:08:00,52.1,31.1,30.09,NW,326,0.0,0.0,44,0.00,,---,0.00,VWS V14.00,2013-04-29 12:08:00,
2013-04-29 05:17:00,52.0,32.2,30.09,NW,326,0.0,0.0,46,0.00,,---,0.00,VWS V14.00,2013-04-29 12:17:00,
2013-04-29 05:22:00,52.1,31.7,30.09,NW,326,0.0,0.0,46,0.00,,---,0.00,VWS V14.00,2013-04-29 12:22:00,
2013-04-29 05:27:00,51.9,32.1,30.09,NW,326,0.0,0.0,46,0.00,,---,0.00,VWS V14.00,2013-04-29 12:27:00,
2013-04-29 05:32:00,51.5,31.1,30.09,NW,326,0.0,0.0,46,0.00,,---,0.00,VWS V14.00,2013-04-29 12:32:00,
2013-04-29 05:37:00,50.8,31.6,30.09,NW,326,0.0,0.0,48,0.00,,---,0.00,VWS V14.00,2013-04-29 12:37:00,
2013-04-29 05:42:00,50.5,31.3,30.09,NW,326,0.0,0.0,48,0.00,,---,0.00,VWS V14.00,2013-04-29 12:42:00,
2013-04-29 05:47:00,51.0,31.2,30.09,NW,326,0.0,0.0,46,0.00,,---,0.00,VWS V14.00,2013-04-29 12:47:00,
2013-04-29 05:52:00,51.1,31.3,30.09,NW,326,0.0,0.0,46,0.00,,---,0.00,VWS V14.00,2013-04-29 12:52:00,
2013-04-29 05:57:00,50.7,31.0,30.09,NW,326,0.0,0.0,46,0.00,,---,0.00,VWS V14.00,2013-04-29 12:57:00,
2013-04-29 06:02:00,50.6,31.4,30.09,NW,326,0.0,0.0,48,0.00,,---,0.00,VWS V14.00,2013-04-29 13:02:00,
2013-04-29 06:12:00,50.9,30.6,30.09,NW,326,0.0,0.0,46,0.00,,---,0.00,VWS V14.00,2013-04-29 13:12:00,
2013-04-29 06:17:00,51.0,30.7,30.09,NW,326,0.0,0.0,46,0.00,,---,0.00,VWS V14.00,2013-04-29 13:17:00,
2013-04-29 06:22:00,51.1,30.8,30.09,NW,326,0.0,0.0,46,0.00,,---,0.00,VWS V14.00,2013-04-29 13:22:00,
2013-04-29 06:27:00,51.2,30.9,30.09,NW,326,0.0,0.0,46,0.00,,---,0.00,VWS V14.00,2013-04-29 13:27:00,
2013-04-29 06:32:00,51.3,30.4,30.09,NW,326,0.0,0.0,44,0.00,,---,0.00,VWS V14.00,2013-04-29 13:32:00,
2013-04-29 06:37:00,51.3,30.4,30.09,NW,326,0.0,0.0,44,0.00,,---,0.00,VWS V14.00,2013-04-29 13:37:00,
2013-04-29 06:42:00,51.0,30.7,30.09,NW,326,0.0,0.0,46,0.00,,---,0.00,VWS V14.00,2013-04-29 13:42:00,
2013-04-29 06:47:00,50.6,30.9,30.10,NW,326,0.0,0.0,46,0.00,,---,0.00,VWS V14.00,2013-04-29 13:47:00,
2013-04-29 06:52:00,50.0,30.8,30.10,NW,326,0.0,0.0,48,0.00,,---,0.00,VWS V14.00,2013-04-29 13:52:00,
2013-04-29 06:57:00,49.6,31.0,30.10,NW,326,0.0,0.0,48,0.00,,---,0.00,VWS V14.00,2013-04-29 13:57:00,
2013-04-29 07:02:00,49.4,31.3,30.10,NW,326,0.0,0.0,50,0.00,,---,0.00,VWS V14.00,2013-04-29 14:02:00,
2013-04-29 07:12:00,50.1,31.5,30.10,NW,326,0.0,0.0,48,0.00,,---,0.00,VWS V14.00,2013-04-29 14:12:00,
2013-04-29 07:17:00,50.5,31.3,30.11,NW,326,0.0,0.0,48,0.00,,---,0.00,VWS V14.00,2013-04-29 14:17:00,
2013-04-29 07:27:00,51.4,31.6,30.10,NW,326,0.0,0.0,46,0.00,,---,0.00,VWS V14.00,2013-04-29 14:27:00,
2013-04-29 07:37:00,52.5,32.1,30.10,NW,326,0.0,0.0,46,0.00,,---,0.00,VWS V14.00,2013-04-29 14:37:00,
2013-04-29 07:42:00,53.0,32.0,30.10,NW,326,0.0,0.0,44,0.00,,---,0.00,VWS V14.00,2013-04-29 14:42:00,
2013-04-29 07:47:00,53.1,32.1,30.10,NW,326,0.0,0.0,44,0.00,,---,0.00,VWS V14.00,2013-04-29 14:47:00,
2013-04-29 07:57:00,53.5,32.4,30.10,NW,326,0.0,0.0,44,0.00,,---,0.00,VWS V14.00,2013-04-29 14:57:00,
2013-04-29 08:02:00,53.7,32.6,30.10,NW,326,0.0,0.0,44,0.00,,---,0.00,VWS V14.00,2013-04-29 15:02:00,
2013-04-29 08:12:00,54.5,32.8,30.10,NW,326,0.0,0.0,44,0.00,,---,0.00,VWS V14.00,2013-04-29 15:12:00,
2013-04-29 08:17:00,54.6,32.9,30.10,NW,326,0.0,0.0,44,0.00,,---,0.00,VWS V14.00,2013-04-29 15:17:00,
2013-04-29 08:22:00,55.2,33.4,30.10,NW,326,0.0,0.0,44,0.00,,---,0.00,VWS V14.00,2013-04-29 15:22:00,
2013-04-29 08:32:00,55.9,32.9,30.10,NW,326,0.0,0.0,42,0.00,,---,0.00,VWS V14.00,2013-04-29 15:32:00,
2013-04-29 08:37:00,56.1,32.4,30.10,NW,326,0.0,0.0,40,0.00,,---,0.00,VWS V14.00,2013-04-29 15:37:00,
2013-04-29 08:42:00,56.4,32.7,30.10,NW,326,0.0,0.0,40,0.00,,---,0.00,VWS V14.00,2013-04-29 15:42:00,
2013-04-29 08:47:00,56.7,32.4,30.10,NW,326,0.0,0.0,40,0.00,,---,0.00,VWS V14.00,2013-04-29 15:47:00,
2013-04-29 08:52:00,57.0,32.6,30.10,NW,326,0.0,0.0,40,0.00,,---,0.00,VWS V14.00,2013-04-29 15:52:00,
2013-04-29 08:57:00,57.6,33.2,30.09,NW,326,0.0,0.0,40,0.00,,---,0.00,VWS V14.00,2013-04-29 15:57:00,
2013-04-29 09:02:00,57.8,32.7,30.09,NW,326,0.0,0.0,38,0.00,,---,0.00,VWS V14.00,2013-04-29 16:02:00,
2013-04-29 09:12:00,58.4,33.2,30.09,NW,326,0.0,0.0,38,0.00,,---,0.00,VWS V14.00,2013-04-29 16:12:00,
2013-04-29 09:17:00,59.0,33.1,30.09,NW,326,0.0,0.0,38,0.00,,---,0.00,VWS V14.00,2013-04-29 16:17:00,
2013-04-29 09:27:00,59.9,33.9,30.09,NW,326,4.0,8.0,38,0.00,,---,0.00,VWS V14.00,2013-04-29 16:27:00,
2013-04-29 09:37:00,60.4,33.7,30.08,NW,326,0.0,6.0,36,0.00,,---,0.00,VWS V14.00,2013-04-29 16:37:00,
2013-04-29 09:42:00,61.1,34.3,30.08,NW,326,4.0,5.0,36,0.00,,---,0.00,VWS V14.00,2013-04-29 16:42:00,
2013-04-29 09:47:00,61.4,34.6,30.08,NW,326,8.0,8.0,36,0.00,,---,0.00,VWS V14.00,2013-04-29 16:47:00,
2013-04-29 09:52:00,61.8,34.9,30.08,NW,326,2.0,8.0,36,0.00,,---,0.00,VWS V14.00,2013-04-29 16:52:00,
2013-04-29 10:02:00,62.4,34.0,30.08,NW,326,1.0,8.0,34,0.00,,---,0.00,VWS V14.00,2013-04-29 17:02:00,
2013-04-29 10:12:00,63.4,34.2,30.08,NW,326,6.0,8.0,34,0.00,,---,0.00,VWS V14.00,2013-04-29 17:12:00,
2013-04-29 10:17:00,62.8,34.4,30.07,NW,326,4.0,9.0,34,0.00,,---,0.00,VWS V14.00,2013-04-29 17:17:00,
2013-04-29 10:22:00,62.6,34.9,30.07,NW,326,6.0,9.0,36,0.00,,---,0.00,VWS V14.00,2013-04-29 17:22:00,
2013-04-29 10:27:00,63.0,34.6,30.07,NNW,327,5.0,6.0,34,0.00,,---,0.00,VWS V14.00,2013-04-29 17:27:00,
2013-04-29 10:37:00,63.7,35.2,30.07,NW,326,4.0,7.0,34,0.00,,---,0.00,VWS V14.00,2013-04-29 17:37:00,
2013-04-29 10:42:00,64.1,34.8,30.06,NNW,327,7.0,9.0,34,0.00,,---,0.00,VWS V14.00,2013-04-29 17:42:00,
2013-04-29 10:47:00,64.1,34.8,30.06,NNW,327,6.0,9.0,34,0.00,,---,0.00,VWS V14.00,2013-04-29 17:47:00,
2013-04-29 10:57:00,65.0,35.6,30.06,NW,326,9.0,9.0,34,0.00,,---,0.00,VWS V14.00,2013-04-29 17:57:00,
2013-04-29 11:02:00,65.6,35.4,30.06,NNW,327,1.0,9.0,32,0.00,,---,0.00,VWS V14.00,2013-04-29 18:02:00,
2013-04-29 11:12:00,67.5,36.2,30.06,NNW,327,0.0,1.0,32,0.00,,---,0.00,VWS V14.00,2013-04-29 18:12:00,
2013-04-29 11:17:00,67.9,35.8,30.05,NNW,327,0.0,5.0,30,0.00,,---,0.00,VWS V14.00,2013-04-29 18:17:00,
2013-04-29 11:27:00,68.7,34.8,30.05,NNW,327,0.0,2.0,28,0.00,,---,0.00,VWS V14.00,2013-04-29 18:27:00,
2013-04-29 11:32:00,69.2,35.2,30.05,NNW,327,0.0,0.0,28,0.00,,---,0.00,VWS V14.00,2013-04-29 18:32:00,
2013-04-29 11:42:00,70.2,35.2,30.04,NNW,327,0.0,0.0,28,0.00,,---,0.00,VWS V14.00,2013-04-29 18:42:00,
2013-04-29 11:47:00,70.9,35.8,30.04,NNW,327,0.0,0.0,28,0.00,,---,0.00,VWS V14.00,2013-04-29 18:47:00,
2013-04-29 11:52:00,71.8,34.6,30.04,NNW,327,0.0,2.0,26,0.00,,---,0.00,VWS V14.00,2013-04-29 18:52:00,
2013-04-29 11:57:00,71.6,33.4,30.04,NNW,327,0.0,2.0,24,0.00,,---,0.00,VWS V14.00,2013-04-29 18:57:00,
2013-04-29 12:02:00,71.9,33.7,30.03,NW,326,0.0,0.0,24,0.00,,---,0.00,VWS V14.00,2013-04-29 19:02:00,
2013-04-29 12:07:00,72.6,35.3,30.03,NW,326,0.0,0.0,26,0.00,,---,0.00,VWS V14.00,2013-04-29 19:07:00,
2013-04-29 12:17:00,73.4,36.0,30.02,NW,326,5.0,6.0,26,0.00,,---,0.00,VWS V14.00,2013-04-29 19:17:00,
2013-04-29 12:22:00,73.9,34.3,30.02,NNW,327,0.0,7.0,24,0.00,,---,0.00,VWS V14.00,2013-04-29 19:22:00,
2013-04-29 12:32:00,75.0,35.3,30.02,NNW,327,2.0,9.0,24,0.00,,---,0.00,VWS V14.00,2013-04-29 19:32:00,
2013-04-29 12:42:00,74.8,35.1,30.01,NNW,327,0.0,11.0,24,0.00,,---,0.00,VWS V14.00,2013-04-29 19:42:00,
2013-04-29 12:47:00,74.5,33.8,30.01,NNW,327,1.0,8.0,22,0.00,,---,0.00,VWS V14.00,2013-04-29 19:47:00,
2013-04-29 12:52:00,74.7,33.9,30.01,NW,326,0.0,9.0,22,0.00,,---,0.00,VWS V14.00,2013-04-29 19:52:00,
2013-04-29 12:57:00,74.7,35.0,30.01,NW,313,0.0,9.0,24,0.00,,---,0.00,VWS V14.00,2013-04-29 19:57:00,
2013-04-29 13:02:00,75.4,35.6,30.01,NW,322,0.0,8.0,24,0.00,,---,0.00,VWS V14.00,2013-04-29 20:02:00,
2013-04-29 13:12:00,74.9,36.2,30.00,NW,321,0.0,11.0,24,0.00,,---,0.00,VWS V14.00,2013-04-29 20:12:00,
2013-04-29 13:17:00,75.0,37.3,30.00,NW,311,0.0,9.0,26,0.00,,---,0.00,VWS V14.00,2013-04-29 20:17:00,
2013-04-29 13:22:00,75.7,35.8,30.00,NW,310,5.0,11.0,24,0.00,,---,0.00,VWS V14.00,2013-04-29 20:22:00,
2013-04-29 13:32:00,76.2,36.3,29.99,WNW,296,9.0,16.0,24,0.00,,---,0.00,VWS V14.00,2013-04-29 20:32:00,
2013-04-29 13:42:00,76.4,36.4,29.99,WNW,301,16.0,19.0,24,0.00,,---,0.00,VWS V14.00,2013-04-29 20:42:00,
2013-04-29 13:47:00,76.9,35.8,29.99,WNW,296,12.0,18.0,22,0.00,,---,0.00,VWS V14.00,2013-04-29 20:47:00,
2013-04-29 13:52:00,76.5,35.4,29.99,WNW,302,14.0,21.0,22,0.00,,---,0.00,VWS V14.00,2013-04-29 20:52:00,
2013-04-29 13:57:00,76.4,35.3,29.99,NW,309,11.0,19.0,22,0.00,,---,0.00,VWS V14.00,2013-04-29 20:57:00,
2013-04-29 14:02:00,77.0,34.7,29.99,WNW,300,11.0,19.0,22,0.00,,---,0.00,VWS V14.00,2013-04-29 21:02:00,
2013-04-29 14:07:00,77.0,35.8,29.99,WNW,289,11.0,20.0,22,0.00,,---,0.00,VWS V14.00,2013-04-29 21:07:00,
2013-04-29 14:12:00,77.1,32.3,29.98,NW,304,10.0,22.0,20,0.00,,---,0.00,VWS V14.00,2013-04-29 21:12:00,
2013-04-29 14:17:00,77.2,32.4,29.98,NW,309,10.0,25.0,20,0.00,,---,0.00,VWS V14.00,2013-04-29 21:17:00,
2013-04-29 14:27:00,77.1,31.0,29.98,NW,313,15.0,30.0,18,0.00,,---,0.00,VWS V14.00,2013-04-29 21:27:00,
2013-04-29 14:32:00,76.6,33.2,29.98,WNW,286,12.0,23.0,20,0.00,,---,0.00,VWS V14.00,2013-04-29 21:32:00,
2013-04-29 14:42:00,78.4,33.4,29.98,West,279,26.0,26.0,20,0.00,,---,0.00,VWS V14.00,2013-04-29 21:42:00,
2013-04-29 14:47:00,77.5,33.9,29.98,NW,309,25.0,26.0,20,0.00,,---,0.00,VWS V14.00,2013-04-29 21:47:00,
2013-04-29 14:52:00,77.1,33.6,29.98,WNW,284,15.0,24.0,20,0.00,,---,0.00,VWS V14.00,2013-04-29 21:52:00,
2013-04-29 14:57:00,77.2,33.7,29.97,NW,304,18.0,25.0,20,0.00,,---,0.00,VWS V14.00,2013-04-29 21:57:00,
2013-04-29 15:02:00,77.5,35.1,29.97,West,269,19.0,24.0,22,0.00,,---,0.00,VWS V14.00,2013-04-29 22:02:00,
2013-04-29 15:07:00,77.3,35.0,29.97,West,273,15.0,24.0,22,0.00,,---,0.00,VWS V14.00,2013-04-29 22:07:00,
2013-04-29 15:17:00,77.8,34.2,29.97,WNW,302,21.0,26.0,20,0.00,,---,0.00,VWS V14.00,2013-04-29 22:17:00,
2013-04-29 15:22:00,76.6,33.2,29.97,WNW,298,12.0,25.0,20,0.00,,---,0.00,VWS V14.00,2013-04-29 22:22:00,
2013-04-29 15:27:00,76.8,34.5,29.97,WNW,284,15.0,25.0,22,0.00,,---,0.00,VWS V14.00,2013-04-29 22:27:00,
2013-04-29 15:32:00,76.6,35.5,29.97,West,281,18.0,26.0,22,0.00,,---,0.00,VWS V14.00,2013-04-29 22:32:00,
2013-04-29 15:42:00,75.9,36.0,29.97,WNW,290,14.0,24.0,24,0.00,,---,0.00,VWS V14.00,2013-04-29 22:42:00,
2013-04-29 15:47:00,76.5,35.4,29.96,West,278,18.0,21.0,22,0.00,,---,0.00,VWS V14.00,2013-04-29 22:47:00,
2013-04-29 15:52:00,75.4,35.6,29.96,WNW,284,11.0,24.0,24,0.00,,---,0.00,VWS V14.00,2013-04-29 22:52:00,
2013-04-29 15:57:00,75.1,35.3,29.96,WNW,285,18.0,22.0,24,0.00,,---,0.00,VWS V14.00,2013-04-29 22:57:00,
2013-04-29 16:02:00,74.3,34.7,29.96,WNW,294,19.0,24.0,24,0.00,,---,0.00,VWS V14.00,2013-04-29 23:02:00,
2013-04-29 16:07:00,73.8,34.3,29.96,NW,309,15.0,21.0,24,0.00,,---,0.00,VWS V14.00,2013-04-29 23:07:00,
2013-04-29 16:12:00,73.2,34.8,29.96,NW,320,15.0,22.0,24,0.00,,---,0.00,VWS V14.00,2013-04-29 23:12:00,
2013-04-29 16:17:00,73.3,34.9,29.96,WNW,296,11.0,20.0,24,0.00,,---,0.00,VWS V14.00,2013-04-29 23:17:00,
2013-04-29 16:22:00,73.3,34.9,29.95,WNW,292,14.0,18.0,24,0.00,,---,0.00,VWS V14.00,2013-04-29 23:22:00,
2013-04-29 16:32:00,73.2,34.8,29.95,NW,307,14.0,18.0,24,0.00,,---,0.00,VWS V14.00,2013-04-29 23:32:00,
2013-04-29 16:42:00,73.0,34.6,29.95,WNW,294,15.0,25.0,24,0.00,,---,0.00,VWS V14.00,2013-04-29 23:42:00,
2013-04-29 16:47:00,72.6,34.3,29.95,NW,311,20.0,24.0,24,0.00,,---,0.00,VWS V14.00,2013-04-29 23:47:00,
2013-04-29 16:52:00,72.5,33.2,29.95,NW,304,20.0,23.0,24,0.00,,---,0.00,VWS V14.00,2013-04-29 23:52:00,
2013-04-29 16:57:00,72.4,35.1,29.96,NW,306,15.0,23.0,26,0.00,,---,0.00,VWS V14.00,2013-04-29 23:57:00,
2013-04-29 17:02:00,72.4,34.1,29.96,NW,308,19.0,23.0,24,0.00,,---,0.00,VWS V14.00,2013-04-30 00:02:00,
2013-04-29 17:07:00,72.1,33.9,29.96,NW,309,22.0,24.0,24,0.00,,---,0.00,VWS V14.00,2013-04-30 00:07:00,
2013-04-29 17:12:00,72.4,35.1,29.96,NW,309,18.0,22.0,26,0.00,,---,0.00,VWS V14.00,2013-04-30 00:12:00,
2013-04-29 17:17:00,72.2,35.0,29.95,WNW,300,16.0,20.0,26,0.00,,---,0.00,VWS V14.00,2013-04-30 00:17:00,
2013-04-29 17:27:00,73.0,32.5,29.95,WNW,295,14.0,20.0,22,0.00,,---,0.00,VWS V14.00,2013-04-30 00:27:00,
2013-04-29 17:37:00,72.6,32.2,29.95,West,273,8.0,15.0,22,0.00,,---,0.00,VWS V14.00,2013-04-30 00:37:00,
2013-04-29 17:42:00,72.6,32.2,29.95,WSW,254,8.0,12.0,22,0.00,,---,0.00,VWS V14.00,2013-04-30 00:42:00,
2013-04-29 17:47:00,72.5,32.1,29.95,WNW,282,9.0,11.0,22,0.00,,---,0.00,VWS V14.00,2013-04-30 00:47:00,
2013-04-29 17:52:00,72.3,33.0,29.95,WNW,292,10.0,14.0,24,0.00,,---,0.00,VWS V14.00,2013-04-30 00:52:00,
2013-04-29 17:57:00,71.7,33.5,29.95,NW,312,7.0,13.0,24,0.00,,---,0.00,VWS V14.00,2013-04-30 00:57:00,
2013-04-29 18:02:00,71.3,34.2,29.95,NW,312,10.0,14.0,26,0.00,,---,0.00,VWS V14.00,2013-04-30 01:02:00,
2013-04-29 18:07:00,71.1,34.0,29.95,NW,313,8.0,15.0,26,0.00,,---,0.00,VWS V14.00,2013-04-30 01:07:00,
2013-04-29 18:17:00,70.5,35.4,29.95,NW,317,10.0,15.0,28,0.00,,---,0.00,VWS V14.00,2013-04-30 01:17:00,
2013-04-29 18:22:00,70.3,34.3,29.95,NW,315,9.0,14.0,26,0.00,,---,0.00,VWS V14.00,2013-04-30 01:22:00,
2013-04-29 18:27:00,70.3,34.3,29.95,NW,319,6.0,12.0,26,0.00,,---,0.00,VWS V14.00,2013-04-30 01:27:00,
2013-04-29 18:32:00,70.2,34.2,29.95,NW,319,2.0,10.0,26,0.00,,---,0.00,VWS V14.00,2013-04-30 01:32:00,
2013-04-29 18:37:00,70.2,35.2,29.95,NW,318,5.0,9.0,28,0.00,,---,0.00,VWS V14.00,2013-04-30 01:37:00,
2013-04-29 18:42:00,70.1,34.1,29.95,NW,319,6.0,8.0,26,0.00,,---,0.00,VWS V14.00,2013-04-30 01:42:00,
2013-04-29 18:47:00,69.8,34.8,29.95,NW,319,7.0,9.0,28,0.00,,---,0.00,VWS V14.00,2013-04-30 01:47:00,
2013-04-29 18:52:00,69.5,35.4,29.95,NNW,333,12.0,14.0,28,0.00,,---,0.00,VWS V14.00,2013-04-30 01:52:00,
2013-04-29 18:57:00,69.1,36.0,29.95,NNW,337,9.0,14.0,30,0.00,,---,0.00,VWS V14.00,2013-04-30 01:57:00,
2013-04-29 19:02:00,68.9,36.6,29.95,NNW,338,5.0,10.0,30,0.00,,---,0.00,VWS V14.00,2013-04-30 02:02:00,
2013-04-29 19:12:00,68.5,35.5,29.95,NNE,13,6.0,9.0,30,0.00,,---,0.00,VWS V14.00,2013-04-30 02:12:00,
2013-04-29 19:17:00,68.3,35.3,29.95,NNE,13,0.0,6.0,30,0.00,,---,0.00,VWS V14.00,2013-04-30 02:17:00,
2013-04-29 19:22:00,68.3,35.3,29.94,NNE,18,0.0,0.0,30,0.00,,---,0.00,VWS V14.00,2013-04-30 02:22:00,
2013-04-29 19:32:00,67.6,35.5,29.94,NNE,19,8.0,10.0,30,0.00,,---,0.00,VWS V14.00,2013-04-30 02:32:00,
2013-04-29 19:37:00,67.5,36.2,29.94,North,11,6.0,12.0,32,0.00,,---,0.00,VWS V14.00,2013-04-30 02:37:00,
2013-04-29 19:42:00,67.0,36.6,29.95,North,360,7.0,13.0,32,0.00,,---,0.00,VWS V14.00,2013-04-30 02:42:00,
2013-04-29 19:47:00,66.5,36.9,29.94,North,360,7.0,9.0,34,0.00,,---,0.00,VWS V14.00,2013-04-30 02:47:00,
2013-04-29 19:52:00,66.4,36.1,29.94,North,360,0.0,10.0,32,0.00,,---,0.00,VWS V14.00,2013-04-30 02:52:00,
2013-04-29 19:57:00,66.6,35.5,29.95,North,360,0.0,5.0,32,0.00,,---,0.00,VWS V14.00,2013-04-30 02:57:00,
2013-04-29 20:02:00,66.1,35.8,29.95,North,360,5.0,8.0,32,0.00,,---,0.00,VWS V14.00,2013-04-30 03:02:00,
2013-04-29 20:07:00,65.9,36.4,29.95,North,360,0.0,6.0,34,0.00,,---,0.00,VWS V14.00,2013-04-30 03:07:00,
2013-04-29 20:12:00,65.6,36.1,29.95,North,360,0.0,0.0,34,0.00,,---,0.00,VWS V14.00,2013-04-30 03:12:00,
2013-04-29 20:17:00,65.6,36.1,29.95,North,360,0.0,0.0,34,0.00,,---,0.00,VWS V14.00,2013-04-30 03:17:00,
2013-04-29 20:22:00,65.6,36.1,29.95,North,360,0.0,0.0,34,0.00,,---,0.00,VWS V14.00,2013-04-30 03:22:00,
2013-04-29 20:27:00,65.4,36.0,29.95,North,360,0.0,0.0,34,0.00,,---,0.00,VWS V14.00,2013-04-30 03:27:00,
2013-04-29 20:32:00,65.0,35.6,29.95,North,360,0.0,0.0,34,0.00,,---,0.00,VWS V14.00,2013-04-30 03:32:00,
2013-04-29 20:37:00,64.7,36.1,29.95,North,360,0.0,0.0,34,0.00,,---,0.00,VWS V14.00,2013-04-30 03:37:00,
2013-04-29 20:42:00,64.0,34.7,29.95,North,360,0.0,0.0,34,0.00,,---,0.00,VWS V14.00,2013-04-30 03:42:00,
2013-04-29 20:47:00,63.6,34.4,29.95,North,360,0.0,0.0,34,0.00,,---,0.00,VWS V14.00,2013-04-30 03:47:00,
2013-04-29 20:52:00,63.4,34.9,29.95,North,360,0.0,0.0,34,0.00,,---,0.00,VWS V14.00,2013-04-30 03:52:00,
2013-04-29 20:57:00,63.5,35.0,29.95,North,360,0.0,0.0,34,0.00,,---,0.00,VWS V14.00,2013-04-30 03:57:00,
2013-04-29 21:02:00,63.9,34.6,29.95,North,360,0.0,0.0,34,0.00,,---,0.00,VWS V14.00,2013-04-30 04:02:00,
2013-04-29 21:07:00,63.4,34.2,29.95,North,360,0.0,0.0,34,0.00,,---,0.00,VWS V14.00,2013-04-30 04:07:00,
2013-04-29 21:12:00,62.9,33.8,29.95,North,360,0.0,1.0,34,0.00,,---,0.00,VWS V14.00,2013-04-30 04:12:00,
2013-04-29 21:17:00,62.7,33.6,29.95,North,360,0.0,0.0,34,0.00,,---,0.00,VWS V14.00,2013-04-30 04:17:00,
2013-04-29 21:22:00,62.6,33.5,29.95,North,360,0.0,0.0,34,0.00,,---,0.00,VWS V14.00,2013-04-30 04:22:00,
2013-04-29 21:27:00,62.2,33.1,29.95,North,360,5.0,5.0,34,0.00,,---,0.00,VWS V14.00,2013-04-30 04:27:00,
2013-04-29 21:32:00,62.5,33.4,29.95,North,360,0.0,7.0,34,0.00,,---,0.00,VWS V14.00,2013-04-30 04:32:00,
2013-04-29 21:37:00,62.8,33.7,29.95,North,360,0.0,0.0,34,0.00,,---,0.00,VWS V14.00,2013-04-30 04:37:00,
2013-04-29 21:42:00,62.6,33.5,29.95,North,360,0.0,0.0,34,0.00,,---,0.00,VWS V14.00,2013-04-30 04:42:00,
2013-04-29 21:47:00,62.3,33.2,29.96,North,360,0.0,5.0,34,0.00,,---,0.00,VWS V14.00,2013-04-30 04:47:00,
2013-04-29 21:52:00,62.3,33.2,29.96,North,349,10.0,12.0,34,0.00,,---,0.00,VWS V14.00,2013-04-30 04:52:00,
2013-04-29 21:57:00,62.8,33.7,29.96,NNW,331,4.0,12.0,34,0.00,,---,0.00,VWS V14.00,2013-04-30 04:57:00,
2013-04-29 22:02:00,62.5,33.4,29.96,NNW,330,10.0,12.0,34,0.00,,---,0.00,VWS V14.00,2013-04-30 05:02:00,
2013-04-29 22:07:00,62.6,33.5,29.96,NNW,328,6.0,14.0,34,0.00,,---,0.00,VWS V14.00,2013-04-30 05:07:00,
2013-04-29 22:12:00,62.3,34.0,29.96,NW,324,5.0,15.0,34,0.00,,---,0.00,VWS V14.00,2013-04-30 05:12:00,
2013-04-29 22:17:00,62.1,33.8,29.96,WNW,303,11.0,16.0,34,0.00,,---,0.00,VWS V14.00,2013-04-30 05:17:00,
2013-04-29 22:22:00,62.5,33.4,29.96,WNW,300,10.0,19.0,34,0.00,,---,0.00,VWS V14.00,2013-04-30 05:22:00,
2013-04-29 22:27:00,62.7,33.6,29.96,WNW,301,6.0,13.0,34,0.00,,---,0.00,VWS V14.00,2013-04-30 05:27:00,
2013-04-29 22:32:00,62.6,34.2,29.96,WNW,301,12.0,12.0,34,0.00,,---,0.00,VWS V14.00,2013-04-30 05:32:00,
2013-04-29 22:37:00,62.5,33.4,29.96,WNW,301,10.0,15.0,34,0.00,,---,0.00,VWS V14.00,2013-04-30 05:37:00,
2013-04-29 22:42:00,62.6,34.2,29.95,WNW,300,9.0,16.0,34,0.00,,---,0.00,VWS V14.00,2013-04-30 05:42:00,
2013-04-29 22:47:00,62.5,34.1,29.95,WNW,301,9.0,13.0,34,0.00,,---,0.00,VWS V14.00,2013-04-30 05:47:00,
2013-04-29 22:52:00,62.1,34.5,29.95,WNW,301,9.0,13.0,36,0.00,,---,0.00,VWS V14.00,2013-04-30 05:52:00,
2013-04-29 22:57:00,61.8,34.2,29.95,WNW,300,0.0,10.0,36,0.00,,---,0.00,VWS V14.00,2013-04-30 05:57:00,
2013-04-29 23:02:00,60.7,32.5,29.95,WNW,301,0.0,0.0,34,0.00,,---,0.00,VWS V14.00,2013-04-30 06:02:00,
2013-04-29 23:07:00,59.4,32.1,29.95,WNW,301,0.0,0.0,36,0.00,,---,0.00,VWS V14.00,2013-04-30 06:07:00,
2013-04-29 23:12:00,59.2,33.3,29.95,WNW,301,0.0,0.0,38,0.00,,---,0.00,VWS V14.00,2013-04-30 06:12:00,
2013-04-29 23:17:00,59.6,33.0,29.95,WNW,301,0.0,0.0,36,0.00,,---,0.00,VWS V14.00,2013-04-30 06:17:00,
2013-04-29 23:22:00,59.0,32.5,29.95,WNW,300,0.0,0.0,36,0.00,,---,0.00,VWS V14.00,2013-04-30 06:22:00,
2013-04-29 23:27:00,58.7,32.2,29.95,WNW,301,0.0,0.0,36,0.00,,---,0.00,VWS V14.00,2013-04-30 06:27:00,
2013-04-29 23:32:00,58.2,32.4,29.95,NW,309,0.0,5.0,38,0.00,,---,0.00,VWS V14.00,2013-04-30 06:32:00,
2013-04-29 23:37:00,57.7,32.0,29.95,NW,313,0.0,5.0,38,0.00,,---,0.00,VWS V14.00,2013-04-30 06:37:00,
2013-04-29 23:42:00,57.5,32.4,29.95,NW,314,0.0,0.0,38,0.00,,---,0.00,VWS V14.00,2013-04-30 06:42:00,
2013-04-29 23:47:00,57.7,32.0,29.95,NW,315,0.0,0.0,38,0.00,,---,0.00,VWS V14.00,2013-04-30 06:47:00,
2013-04-29 23:57:00,57.4,31.7,29.95,NW,315,0.0,0.0,38,0.00,,---,0.00,VWS V14.00,2013-04-30 06:57:00,